Overview Statistics Trail Chart Weather Telemetry Raw packets
 

This is the latest recevied weather packets stored in our database for station/object DM8MH-13. If no packets are shown the sender has not sent any weather packets the latest 10 day(s).

<< 1 2 3 4 >>
Time Temp. Humidity Pressure Rain* Wind** Luminosity Snow
1788685870 18.33° C 63% 1027.7 hPa 0 mm - 684 W/m² -
1788684671 17.22° C 66% 1027.6 hPa 0 mm - 563 W/m² -
1788684072 17.22° C 67% 1027.6 hPa 0 mm - 136 W/m² -
1788683472 17.78° C 66% 1027.7 hPa 0 mm - 527 W/m² -
1788682872 17.78° C 64% 1027.6 hPa 0 mm - 473 W/m² -
1788682271 18.33° C 67% 1027.6 hPa 0 mm - 396 W/m² -
1788681672 17.78° C 68% 1027.7 hPa 0 mm - 361 W/m² -
1788681071 17.78° C 70% 1027.4 hPa 0 mm - 341 W/m² -
1788680472 16.67° C 72% 1027.2 hPa 0 mm - 338 W/m² -
1788679871 16.11° C 75% 1027.2 hPa 0 mm - 332 W/m² -
1788679272 15° C 78% 1027.4 hPa 0 mm - 280 W/m² -
1788678672 14.44° C 79% 1027.3 hPa 0 mm - 268 W/m² -
1788678072 13.89° C 80% 1027.2 hPa 0 mm - 251 W/m² -
1788677472 13.33° C 82% 1027.1 hPa 0 mm - 228 W/m² -
1788676872 13.33° C 82% 1026.9 hPa 0 mm - 229 W/m² -
1788676271 12.78° C 83% 1027 hPa 0 mm - 222 W/m² -
1788675671 12.78° C 83% 1027 hPa 0 mm - 198 W/m² -
1788675072 12.22° C 84% 1026.8 hPa 0 mm - 125 W/m² -
1788674471 12.22° C 84% 1026.6 hPa 0 mm - 144 W/m² -
1788673872 11.67° C 84% 1026.7 hPa 0 mm - 118 W/m² -
1788673272 11.67° C 85% 1026.6 hPa 0 mm - 86 W/m² -
1788672671 11.67° C 85% 1026.4 hPa 0 mm - 65 W/m² -
1788672072 11.11° C 85% 1026.3 hPa 0 mm - 46 W/m² -
1788671474 11.11° C 85% 1026.1 hPa 0 mm - 19 W/m² -
1788670871 11.11° C 85% 1026 hPa 0 mm - 14 W/m² -

* Rain latest hour (hover to see other rain measurements)
** Current wind speed in m/s (hover to see current wind gust speed)